Location: *
(12.5665°N, 8.3471°E)
Time: 02:39:02
(UTC+00:00)

Cosmos 1867 - Pass Details

Date: 23 September 2019
Orbit: 775 x 800 km, 65.0° (Epoch: 14 October)

Event Time Altitude Azimuth Distance (km) Brightness Sun altitude
Rises 04:24:31 0° 203° (SSW) 3,264 6.5 -13.3°
Reaches altitude 10° 04:26:55 10° 204° (SSW) 2,340 5.7 -12.7°
Maximum altitude 04:32:18 84° 291° (WNW) 797 3.5 -11.4°
Drops below altitude 10° 04:37:44 10° 21° (NNE) 2,357 6.3 -10.1°
Sets 04:40:10 0° 22° (NNE) 3,289 7.1 -9.5°
